Lid_Strength_Index
5 4 5 5 4 4 4 4 4 4 5 5 5 4 4 4 4 5 8 4 3 -2 -0 1 3 2 2 4 4 4 11 13 12 11 9 6 7 5 4 6 5 4 5 4 2
5 5 4 5 4 4 4 4 4 4 5 5 5 4 4 4 6 8 3 -2 -2 -2 1 3 4 3 6 6 6 8 12 11 8 7 8 6 7 6 7 7 6 6 4 3 3
5 5 4 5 4 4 4 4 4 4 5 5 5 4 4 5 7 6 -2 -3 -2 -0 1 1 2 4 7 6 7 8 11 8 7 6 6 6 7 5 7 9 6 7 6 4 4
5 5 4 5 5 4 5 4 4 5 5 5 5 4 4 6 9 3 -2 -2 -2 1 1 3 4 6 8 9 6 10 8 7 7 6 6 7 6 7 6 6 4 4 4 4 4
5 6 5 5 5 4 5 4 5 5 5 5 5 4 7 10 8 0 -2 -2 1 1 3 4 6 6 9 8 8 9 8 6 6 5 5 5 7 7 6 5 4 4 4 4 4
5 6 5 5 5 4 5 5 6 5 5 5 5 4 7 9 4 -0 1 1 2 2 3 3 5 5 7 8 8 7 7 7 6 6 6 7 7 6 6 4 5 4 4 4 4
6 6 5 5 5 5 5 5 6 5 5 4 4 4 8 8 4 2 2 3 1 2 4 3 3 5 6 8 6 6 9 7 7 6 7 6 9 9 5 5 5 5 5 4 4
6 6 6 5 6 5 5 6 6 5 5 4 4 6 10 5 4 3 4 4 1 1 2 2 2 4 6 5 7 9 9 12 8 7 7 7 13 8 5 6 6 5 5 5 4
6 6 7 6 5 5 6 6 6 5 4 4 7 10 9 4 4 4 4 4 3 2 2 2 3 6 6 9 12 11 14 13 10 7 8 9 12 8 6 6 7 6 5 5 4
6 6 7 7 5 6 6 6 6 6 5 4 5 9 7 6 4 4 5 3 3 4 5 5 7 9 9 11 15 14 13 13 12 9 8 10 10 8 7 7 7 7 6 5 5
7 7 7 7 5 6 8 9 12 10 10 8 8 7 6 5 4 4 3 3 3 5 9 7 11 13 11 10 9 11 12 13 11 8 10 10 10 9 8 8 8 7 7 6 5
7 7 7 7 6 6 9 11 10 9 11 9 8 7 6 6 7 4 3 5 6 10 8 10 13 8 8 8 10 11 13 13 10 8 9 11 11 9 8 8 7 7 7 6 6
7 7 7 7 7 9 11 10 9 9 12 9 8 8 6 7 8 7 4 5 7 10 9 11 9 7 8 10 11 11 12 12 12 9 9 10 12 11 9 7 7 6 6 5 6
7 8 8 8 11 10 11 12 10 10 13 10 8 6 6 6 7 4 4 5 7 10 9 10 7 8 9 10 10 15 9 10 11 12 16 10 17 12 10 10 8 7 6 6 5
8 8 8 8 11 9 11 10 11 9 16 8 8 4 7 7 6 6 3 5 9 9 9 10 9 9 10 9 8 11 8 10 10 13 13 13 15 12 11 12 10 8 7 6 5
8 8 8 9 11 10 9 10 9 13 15 9 7 8 9 8 7 5 5 4 5 8 8 9 6 8 8 7 7 7 9 10 11 13 17 13 14 14 13 11 9 8 7 5 5
8 8 9 8 11 9 10 10 13 16 10 10 10 10 9 9 8 7 8 9 11 13 13 10 9 7 7 9 9 10 13 15 16 17 16 13 14 12 9 8 7 7 6 6 5
8 8 9 8 10 9 10 12 17 12 11 9 9 9 11 9 9 8 10 11 9 11 12 14 14 9 7 9 11 11 13 15 18 18 16 13 16 12 9 7 7 7 6 5 5
6 9 9 8 8 10 10 14 12 11 10 9 9 11 12 10 9 9 10 10 9 9 12 14 13 7 8 7 9 12 13 12 15 16 17 15 12 9 9 8 8 7 6 6 6
9 9 10 8 8 10 12 14 12 10 10 8 10 10 12 11 11 11 11 8 9 7 9 11 14 10 10 8 11 11 10 14 16 17 18 16 15 14 11 10 9 8 7 7 6
9 10 9 8 8 11 14 13 10 9 9 11 10 11 11 11 11 12 11 8 7 8 8 12 11 12 12 13 13 11 13 15 15 16 17 17 15 12 10 9 9 8 7 6 6
9 11 8 8 11 14 14 12 10 9 9 9 11 9 10 10 11 11 11 9 6 7 10 9 14 14 12 11 11 12 12 15 15 15 17 16 15 9 9 10 7 7 7 6 6
9 11 7 9 13 14 13 11 9 11 10 11 11 9 9 10 12 10 9 8 6 7 9 11 14 15 14 14 12 13 12 13 15 16 16 16 14 8 8 8 7 8 7 6 6
7 9 10 11 13 13 14 13 12 9 10 10 10 10 11 11 10 12 11 9 9 9 5 9 15 14 15 14 13 13 11 12 14 15 15 15 14 11 10 9 8 8 7 6 6
8 10 7 12 12 13 14 13 12 12 9 10 11 10 11 11 11 11 9 9 9 5 10 11 13 15 14 13 13 12 11 11 12 13 14 12 14 11 9 9 8 7 7 7 7
8 8 8 9 8 12 14 14 11 10 10 9 10 9 10 10 10 11 10 9 11 11 10 12 13 13 13 10 10 11 10 10 11 10 12 12 12 8 8 8 8 7 7 7 7
8 8 7 10 10 10 12 11 9 9 8 8 8 9 9 8 7 8 7 9 8 10 11 12 13 14 15 13 12 13 11 10 10 10 11 12 9 8 8 8 8 7 6 6 6